Regional Weather Roundup
Issued by NWS

Home | Current Version | Previous Version | Graphics & Text | Print | Product List | Glossary On
Versions: 1 2 3 4 5 6 7 8 9 10 11 12 13 14 15 16 17 18 19 20 21 22 23 24 25 26 27 28 29 30 31 32 33 34 35 36 37 38 39 40 41 42 43 44 45 46 47 48 49 50
000
ASUS43 KFSD 251002
RWRSD

WEATHER ROUNDUP FOR SOUTH DAKOTA
NATIONAL WEATHER SERVICE SIOUX FALLS SD
500 AM CDT SUN JUN 25 2017

NOTE: "FAIR" INDICATES FEW OR NO CLOUDS BELOW 12,000 FEET WITH NO
SIGNIFICANT WEATHER AND/OR OBSTRUCTIONS TO VISIBILITY.


SDZ001>005-009-010-012>017-251100-
NORTHWEST AND NORTH CENTRAL SOUTH DAKOTA

CITY           SKY/WX    TMP DP  RH WIND       PRES   REMARKS
BUFFALO          N/A     47  32  56 SW6       30.27F
FAITH            N/A     43  35  73 SW8       30.33S
MOBRIDGE       CLEAR     38  34  85 CALM      30.27F
$$

SDZ012>016-024>037-041>051-057-063-072>074-251100-
SOUTHWEST AND SOUTH CENTRAL SOUTH DAKOTA

CITY           SKY/WX    TMP DP  RH WIND       PRES   REMARKS
RAPID CTY ARPT MOCLDY    41  33  73 W3        30.36F
PIERRE         NOT AVBL
CUSTER         CLEAR     40  27  59 CALM      30.40F
ELLSWORTH AFB  MOCLDY    49  33  52 SW5       30.35F
PHILIP         CLEAR     40  35  83 W8        30.35S
PINE RIDGE     PTCLDY    44  38  79 NE6       30.37S
SPEARFISH      FAIR      45  34  65 CALM      30.35F
WINNER         FAIR      45  37  73 W7        30.34R
$$

SDZ004>011-016>023-039-040-251100-
NORTHEAST SOUTH DAKOTA

CITY           SKY/WX    TMP DP  RH WIND       PRES   REMARKS
ABERDEEN       CLEAR     44  41  89 NW8       30.27R
WATERTOWN      PTCLDY    49  43  80 NW8       30.23R
BROOKINGS      PTCLDY    45  42  89 W7        30.24R
SISSETON         N/A     49  41  74 NW10      30.21R
$$

SDZ017-020-022-023-036>040-048>070-251100-
SOUTHEAST SOUTH DAKOTA

CITY           SKY/WX    TMP DP  RH WIND       PRES   REMARKS
SIOUX FALLS    PTCLDY    49  45  86 W8        30.25R
HURON          CLEAR     45  42  89 NW8       30.28R
CHAMBERLAIN    CLEAR     45  42  89 W5        30.32S
YANKTON        PTCLDY    50  43  77 W9        30.29R
$$

ABBREVIATIONS USED IN REMARKS
   TC - TEMPERATURE IN CELSIUS
  WCI - WIND CHILL INDEX
   HX - HEAT INDEX
  VSB - VISIBILITY




USA.gov is the U.S. government's official web portal to all federal, state and local government web resources and services.